Погода в Кемиссете

Марокко     33°49′24″N   6°04′29″W
темп.,
°C
ветер,
м/с
пор.,
м/с
влажн.,
%
обл.,
%
осадки,
мм/ч
давл.,
гПа
погр.,
м
28 июня, вт
вт2801:00+15с11660 0.0 101930
04:00+14ссв11700 0.0 101814
07:00+15ссв11650 0.0 101846
10:00+21с22420 0.0 1017579
13:00+28с43280 0.0 10161139
16:00+31с54230 0.0 10141591
19:00+26сз65370 0.0 1015746
22:00+19сз23640 0.0 1018100
29 июня, ср
ср2901:00+17сз11780 0.0 101827
04:00+16ююз01810 0.0 101711
07:00+17зюз00720 0.0 101633
10:00+23ссз21460 0.0 1016584
13:00+29ссз43310 0.0 10141286
16:00+31ссз74280 0.0 10121717
19:00+25сз65400 0.0 1013868
22:00+19сз23610 0.0 1015112
30 июня, чт
чт3001:00+17сз11770 0.0 101540
04:00+16ююз01830 0.0 101411
07:00+16зсз11852 0.0 101455
10:00+22ссз22500 0.0 1014657
13:00+28с43330 0.0 10121265
16:00+31ссз64280 0.0 10111806
19:00+25ссз66390 0.0 1012821
22:00+19сз22650 0.0 101595
1 июля, пт
пт101:00+17с11740 0.0 101518
04:00+16ссв11750 0.0 101411
07:00+17ссв11700 0.0 101329
10:00+23с22460 0.0 1013574
13:00+30с43290 0.0 10121106
16:00+33с54210 0.0 10101373
19:00+30ссз66330 0.0 1010648
22:00+21зсз23590 0.0 101481
2 июля, сб
сб201:00+19зсз11650 0.0 101511
04:00+18зсз01680 0.0 101411
07:00+19зюз11654 0.0 101520
10:00+26сз22422 0.0 1016576
13:00+32сз32270 0.0 10151210
16:00+36ссз43210 0.0 10131736
19:00+31ссз533445 0.0 1016689
22:00+22сз22560 0.0 101847